www.pogodaiklimat.ru

Погода и климат >> Архив погоды >> Пакистан >> Чор


ПОГОДА в Чоре

  • Прогноз погоды в Чоре
  • Монитор погоды в Чоре

АРХИВ ПОГОДЫ в Чоре

Время (UTC), дата Ветер
(напр.,м/с)
 
Видим.   Явления Облачность Т
(С)
Тd
(С)
f
(%)
Тe
(С)
Тes
(С)
Комфортность P
(гПа)
Po
(гПа)
Тmin
(С)
Tmax
(С)
R
(мм)
R24
(мм)
S
(см)
00 17.01 штиль 0 4000 м ясно +13.5 +9.6 77 +13 +13 1015.0 1014.3
03 17.01 СВ 1 4000 м ясно +12.0 +4.3 59 +12 +13 1017.1 1016.4 +7.5
06 17.01 СВ 1 4000 м ясно +21.5 +2.5 29 +21 +33 комфорт 1018.9 1018.2
09 17.01 СВ 1 4000 м ясно +27.5 +3.8 22 +26 +37 жарко 1015.3 1000.0
12 17.01 СВ 1 4000 м ясно +27.5 +5.4 24 +26 +27 жарко 1012.8 1012.1 +28.9
15 17.01 СВ 1 4000 м ясно +21.0 +7.5 42 +24 +24 комфорт 1014.3 1000.0
18 17.01 штиль 0 4000 м ясно +18.5 +9.0 54 +19 +19 1016.2 1015.5
21 17.01 штиль 0 4000 м ясно +13.0 +5.6 61 +13 +13 1015.8 1000.0
00 18.01 штиль 0 4000 м ясно +11.5 +5.0 64 +11 +11 1015.5 1014.8
03 18.01 штиль 0 4000 м ясно +11.5 +5.0 64 +11 +12 1015.5 1014.8
06 18.01 СВ 1 4000 м ясно +22.0 +6.4 36 +23 +34 комфорт 1017.8 1017.1
09 18.01 З 1 4000 м ясно +29.5 +8.1 26 +29 +39 жарко 1014.5 1015.0
12 18.01 штиль 0 4000 м 3/0
[Ci fib]
+29.0 +9.5 30 +29 +30 жарко 1012.1 1011.4 +30.9
15 18.01 штиль 0 4000 м ясно +21.0 +10.0 49 +22 +22 комфорт 1013.7 1000.0
18 18.01 штиль 0 4000 м ясно +16.5 +8.8 60 +16 +16 1015.6 1014.9
21 18.01 штиль 0 4000 м ясно +13.5 +7.4 67 +13 +13 1015.1 1000.0
00 19.01 штиль 0 4000 м ясно +11.5 +7.4 76 +11 +11 1014.1 1013.4
03 19.01 СВ 1 2000 м дым ясно +11.5 +6.2 70 +12 +14 1015.3 1014.6 +9.5
06 19.01 СВ 1 4000 м 3/0
[Ci fib]
+21.0 +6.2 38 +23 +35 комфорт 1017.1 1016.4
09 19.01 штиль 0 4000 м 3/0
[Ci fib]
+29.5 +7.6 25 +29 +40 жарко 1013.6 1000.0
12 19.01 З 1 4000 м 5/0
[Ac trans Ci fib]
+29.0 +9.5 30 +29 +29 жарко 1012.4 1011.7 +31.4
18 19.01 штиль 0 4000 м ясно +17.0 +10.5 66 +17 +17 1016.0 1015.3
21 19.01 штиль 0 4000 м ясно +14.5 +9.7 73 +14 +14 1015.8 1016.0
00 20.01 штиль 0 4000 м ясно +12.5 +8.5 77 +12 +12 1015.2 1014.5
03 20.01 штиль 0 1000 м дымка ясно +10.5 +8.5 87 +10 +11 1017.0 1016.3 +9.3
06 20.01 штиль 0 2000 м дым ясно +21.0 +10.0 49 +22 +35 комфорт 1018.5 1017.8
09 20.01 штиль 0 4000 м 4/0
[Ci fib]
+30.0 +8.4 26 +29 +40 жарко 1014.3 1000.0
12 20.01 ЮЗ 1 4000 м 4/0
[Ci fib]
+28.5 +11.2 34 +29 +30 жарко 1011.6 1010.9 +31.5
18 20.01 С 1 4000 м 4/0
[Ci fib]
+18.0 +9.5 58 +19 +19 1013.7 1013.0
21 20.01 штиль 0 4000 м 3/0
[Ci fib]
+15.5 +8.7 64 +15 +15 1013.1 1000.0
00 21.01 С 2 4000 м 6/0
[Ac trans Ci fib]
+17.5 +6.4 48 +18 +18 1013.4 1012.7
03 21.01 СВ 4 4000 м 8/0
[Ac trans]
+16.5 +10.9 69 +16 +16 1014.8 1014.1 +9.5
06 21.01 СВ 3 4000 м 10/4 1050 м
[Sc As op Ci fib]
+19.0 +11.8 63 +20 +22 1015.8 1015.1
09 21.01 СВ 2 4000 м 8/4 300 м
[Sc Ac trans]
+21.0 +11.1 53 +24 +27 комфорт 1012.8 1000.0
12 21.01 СВ 1 4000 м 8/4 300 м
[Sc Ac trans]
+20.5 +12.6 60 +24 +24 комфорт 1010.0 1009.3 +21.3
15 21.01 ЮЗ 1 4000 м 8/4 1050 м
[Sc Ac trans]
+16.5 +13.9 85 +17 +17 1012.3 1012.0 7
18 21.01 штиль 0 1000 м дымка {гроза} 4/0
[Ci fib]
+14.5 +11.7 83 +14 +14 1013.0 1012.3
21 21.01 штиль 0 500 м дымка 3/0
[Ci fib]
+12.5 +11.6 94 +12 +12 1012.2 1000.0
00 22.01 С 1 50 м дымка н/о +11.5 +10.5 94 +11 +11 1012.5 1011.8
03 22.01 штиль 0 50 м туман ?/? +11.0 +11 +11 1015.1 1014.4 +9.5
06 22.01 ЮВ 1 500 м 10/10 600 м
[St]
+13.5 +10.1 80 +14 +14 1016.2 1015.5
09 22.01 штиль 0 2000 м дым 6/6 200 м
[St]
+16.0 +11.2 73 +16 +21 1013.2 1000.0
12 22.01 штиль 0 4000 м ясно +20.0 +12.2 61 +22 +22 комфорт 1010.7 1010.0 +21.5
15 22.01 СВ 1 4000 м ясно +16.5 +12.9 79 +18 +18 1012.6 1000.0
18 22.01 В 1 4000 м ясно +14.0 +12.2 89 +15 +15 1015.1 1014.4
21 22.01 штиль 0 2000 м дым ясно +12.0 +11.1 94 +11 +11 1014.7 1015.0
00 23.01 штиль 0 1000 м дымка ясно +10.5 +9.5 94 +10 +10 1014.4 1013.7
03 23.01 штиль 0 200 м туман ясно +8.0 +6.9 93 +7 +8 1017.3 1016.6 +6.5
06 23.01 СВ 1 2000 м дым ясно +18.5 +10.1 58 +20 +31 1018.4 1017.7
09 23.01 СВ 1 4000 м ясно +23.0 +10.4 45 +25 +36 комфорт 1014.9 1000.0
12 23.01 СВ 1 4000 м ясно +22.5 +7.1 37 +23 +24 комфорт 1013.3 1012.6 +24.5
15 23.01 СВ 1 4000 м ясно +17.0 +7.0 52 +19 +19 1015.8 1000.0
18 23.01 СВ 1 4000 м ясно +14.0 +8.0 67 +14 +14 1018.6 1017.9

 

Местоположение метеостанции Чор (Пакистан): широта 25.52 долгота 69.78 высота над уровнем моря 6 м.

В архиве по умолчанию представлена погода в Чоре за последнюю неделю. Архивные данные за месяц целиком и за предыдущие месяцы, начиная с января 2011 года, Вы можете получить, выбрав интересующий диапазон дат из раскрывающегося списка и нажав кнопку "Ввод!".


*Определитесь, кто Вы:
робот инопланетянин человек

Внимание! Время в таблицах - всемирное. Для получения местного времени необходимо прибавить поправку, которая равна 5 ч.

Смотрите также архив погоды в соседних городах и на ближайших метеорологических станциях:

Погода в Бадине (Пакистан) (133 км)
Погода в Хайдарабате (Пакистан) (137 км)
Погода в Сакранде (Пакистан) (158 км)
Погода в Бармере (Раджастхан, Индия) (162 км)
Погода в Навабшахе (Пакистан) (163 км)
Погода в Джайсалмере (Раджастхан, Индия) (191 км)
Погода в Пад Идан (Пакистан) (221 км)
Погода в Бхудже (Гуджарат, Индия) (253 км)
Погода в Рохри (Пакистан) (255 км)
Погода в Налии (Гуджарат, Индия) (269 км)

Пояснения к столбцам:

Ветер - указаны скорость ветра в м/с - средняя за 10 мин, порывы в срок и между сроками (в фигурных скобках) и направление, откуда дует ветер: С - северный, СВ - северо-восточный, В - восточный, ЮВ - юго-восточный, Ю - южный, ЮЗ - юго-западный, З - западный, СЗ - северо-западный.
Видимость - горизонтальная дальность видимости в метрах или километрах. При видимости от 1 до 10 км при отсутствии осадков обычно наблюдается дымка, при ухудшении видимости до 1 км и менее - туман. В сухую погоду видимость может ухудшаться дымом, пылью или мглою.
Явления - указаны атмосферные явления, наблюдавшиеся в срок или в последний час перед сроком; фигурными скобками обозначены явления, наблюдавшиеся между сроками (за 1-3 часа до срока); квадратными скобками обозначены град или гололедные отложения с указанием их диаметра в мм.
Облачность - указаны через наклонную черту общая и нижняя облачность в баллах и высота нижней границы облаков в метрах; квадратными скобками обозначены формы облаков: Ci - перистые, Cs - перисто-слоистые, Cc - перисто-кучевые, Ac - высококучевые, As - высокослоистые, Sc - слоисто-кучевые, Ns - слоисто-дождевые, Cu - кучевые, Cb - кучево-дождевые. Подробнее классификацию облаков см. в Атласе облаков (PDF).
T - Температура воздуха - температура, измеренная на высоте 2 м над землей.
Td - Температура точки росы - температура, при понижении до которой содержащийся в воздухе водяной пар достигнет насыщения.
f - Относительная влажность воздуха - влажноcть воздуха, измеренная на высоте 2 м над землей.
Te - Эффективная температура - температура, которую ощущает одетый по сезону человек в тени. Характеристика душности погоды. При расчете учитывается влияние влажности воздуха и скорости ветра на теплоощущения человека.
Tes - Эффективная температура на солнце - температура, которую ощущает человек, с поправкой на солнечный нагрев. Характеристика знойности погоды. Зависит от высоты солнца над горизонтом, облачности и скорости ветра. Ночью, в пасмурную погоду, а также при ветре 12 м/с и более поправка равна нулю.
P - Атмосферное давление - приведенное к уровню моря атмосферное давление.
Po - Атмосферное давление - измеренное на уровне метеостанции атмосферное давление.
Tmin - Минимальная температура - минимум температуры воздуха на высоте 2 м над землей.
Tmax - Максимальная температура - максимум температуры воздуха на высоте 2 м над землей.
R - Количество осадков - Количество выпавших осадков за период времени, мм. При наведении курсора мыши на число - период времени, за который выпало указанное количество осадков.
R24 - Количество осадков - Количество выпавших осадков за 24 часа, мм.
S - Снежный покров - Высота снежного покрова, см. При наведении курсора мыши на число - состояние снежного покрова и степень покрытия местности в баллах.